Flag for Belgium Weather past 2 weeks in Charleroi, Belgium

Now
41 °F

Passing clouds.


Feels Like: 35 °F
Forecast: 38 / 42 °F
Wind: 10 mph from West

Location: Charleroi / Gosselies

Current Time: Dec 25, 2014 at 12:37:40 PM

Latest Report: Dec 25, 2014 at 11:50 AM


Visibility: N/A

Pressure: 30.30 "Hg

Humidity: 87%

Dew point: 37 °F

Location of CharleroiLocation

Historic Weather in Charleroi — Graph

°F

Charleroi temperature yesterday

Maximum temperature yesterday: 48 °F (at 1:50 PM)
Minimum temperature yesterday: 39 °F (at 10:20 PM)
Average temperature yesterday: 45 °F

Past Weeks' High & Low Weather Summary

 TemperatureHumidityPressure
High52 °F (Dec 18, 5:50 AM)100% (Dec 12, 12:50 PM)30.45 "Hg (Dec 12, 12:50 PM)
Low32 °F (Dec 15, 12:20 AM)71% (Dec 10, 2:20 PM)29.45 "Hg (Dec 12, 2:20 PM)
Average43 °F90%30.01 "Hg
* Reported Dec 10 11:20 AM — Dec 25 11:20 AM, Charleroi, Weather by CustomWeather, © 2014

Note: Actual official high and low records may vary slightly from our data, if they occured in-between our weather recording intervals... More about our weather records

Advertising

Charleroi weather history for previous 24 hours

 ConditionsComfort  
Time TempWeatherWind HumidityBarometerVisibility
11:20 AM
Dec 25
39 °FPassing clouds.10 mph87%30.30 "HgN/A
10:50 AM39 °FPassing clouds.12 mph87%30.30 "HgN/A
10:20 AM37 °FPassing clouds.12 mph93%30.30 "HgN/A
9:50 AM37 °FPassing clouds.10 mph93%30.30 "HgN/A
9:20 AM37 °FSunny.8 mph87%30.27 "Hg10 mi
8:50 AM37 °FSunny.9 mph87%30.27 "Hg10 mi
8:20 AM37 °FClear.9 mph87%30.27 "Hg10 mi
7:50 AM37 °FClear.9 mph87%30.27 "Hg10 mi
7:20 AM37 °FClear.9 mph87%30.24 "Hg10 mi
6:50 AM37 °FClear.9 mph87%30.24 "Hg10 mi
6:20 AM37 °FPassing clouds.12 mph87%30.24 "HgN/A
5:50 AM39 °FPassing clouds.9 mph81%30.24 "HgN/A
5:20 AM37 °FPassing clouds.9 mph87%30.24 "HgN/A
4:20 AM39 °FPassing clouds.8 mph81%30.24 "HgN/A
3:50 AM39 °FPassing clouds.8 mph81%30.21 "HgN/A
3:20 AM39 °FPassing clouds.8 mph81%30.24 "HgN/A
2:50 AM39 °FPassing clouds.6 mph81%30.21 "HgN/A
2:20 AM39 °FPassing clouds.9 mph81%30.21 "HgN/A
1:50 AM37 °FPassing clouds.10 mph87%30.21 "HgN/A
1:20 AM37 °FPassing clouds.10 mph87%30.21 "HgN/A
12:50 AM39 °FPassing clouds.8 mph81%30.21 "HgN/A
12:20 AM39 °FPassing clouds.9 mph81%30.21 "HgN/A
11:50 PM
Dec 24
39 °FPassing clouds.8 mph81%30.21 "HgN/A
11:20 PM39 °FPassing clouds.8 mph81%30.18 "HgN/A
10:50 PM39 °FPassing clouds.7 mph75%30.18 "HgN/A
10:20 PM39 °FPassing clouds.7 mph81%30.18 "HgN/A
9:50 PM41 °FPassing clouds.8 mph81%30.18 "HgN/A
9:20 PM43 °FPartly cloudy.9 mph81%30.15 "HgN/A
8:50 PM43 °FPartly cloudy.7 mph93%30.15 "HgN/A
8:20 PM43 °FPartly cloudy.8 mph93%30.15 "HgN/A
7:50 PM43 °FPassing clouds.6 mph93%30.12 "HgN/A
7:20 PM43 °FPartly cloudy.7 mph93%30.12 "HgN/A
6:50 PM43 °FPartly cloudy.8 mph100%30.09 "HgN/A
6:20 PM43 °FPassing clouds.8 mph100%30.09 "HgN/A
5:50 PM43 °FPartly cloudy.10 mph93%30.07 "Hg4 mi
5:20 PM46 °FLight rain. Passing clouds.14 mph100%30.07 "Hg4 mi
4:50 PM48 °FFog.20 mph94%30.04 "Hg2 mi
4:20 PM48 °FFog.20 mph94%30.04 "Hg2 mi
3:50 PM48 °FLight rain. Fog.18 mph94%30.04 "Hg2 mi
3:20 PM48 °FLight rain. Fog.17 mph94%30.04 "Hg2 mi
2:50 PM48 °FLight rain. Fog.20 mph94%30.01 "Hg2 mi
2:20 PM48 °FLight rain. Fog.20 mph94%30.04 "Hg1 mi
1:50 PM48 °FLight rain. Fog.18 mph94%30.04 "Hg2 mi
1:20 PM46 °FPartly sunny.18 mph100%30.04 "Hg5 mi
12:50 PM46 °FPartly sunny.21 mph100%30.04 "Hg4 mi
12:20 PM46 °FDrizzle. Partly sunny.24 mph100%30.04 "Hg4 mi
Weather by CustomWeather, © 2014

See weather overviewHow to use our weather pages